| time (UTC) | temp F | wind direction | speed knots | gust knots | rain 1hr in | rain 24hr in | rain mn in | humidity % | barometer mb |
| 20260831230506 | 77 | 67 | 5.2 | 9.6 | 0.00 | 0.02 | 0.00 | 38 | 1020.0 |
| 20260831230009 | 76 | 57 | 5.2 | 9.6 | 0.00 | 0.02 | 0.00 | 37 | 1020.0 |
| 20260831230004 | 76 | 57 | 5.2 | 9.6 | 0.00 | 0.02 | 0.00 | 37 | 1005.9 |
| 20260831225505 | 76 | 87 | 6.1 | 7.8 | 0.00 | 0.02 | 0.00 | 38 | 1020.1 |
| 20260831225002 | 76 | 83 | 3.5 | 7.0 | 0.00 | 0.02 | 0.00 | 37 | 1020.1 |
| 20260831224505 | 76 | 99 | 4.3 | 7.8 | 0.00 | 0.02 | 0.00 | 37 | 1020.3 |
| 20260831224503 | 76 | 99 | 4.3 | 7.8 | 0.00 | 0.02 | 0.00 | 37 | 1006.2 |
| 20260831224007 | 77 | 84 | 5.2 | 9.6 | 0.00 | 0.02 | 0.00 | 36 | 1020.3 |
| 20260831223505 | 77 | 78 | 3.5 | 9.6 | 0.00 | 0.02 | 0.00 | 34 | 1020.2 |
| 20260831223005 | 78 | 106 | 1.7 | 7.8 | 0.00 | 0.02 | 0.00 | 34 | 1020.4 |
| 20260831223003 | 78 | 106 | 1.7 | 7.8 | 0.00 | 0.02 | 0.00 | 34 | 1006.3 |
| 20260831222505 | 78 | 90 | 4.3 | 9.6 | 0.00 | 0.02 | 0.00 | 33 | 1020.5 |
| 20260831221503 | 78 | 128 | 0.9 | 7.8 | 0.00 | 0.02 | 0.00 | 32 | 1006.6 |
| 20260831220011 | 78 | 94 | 4.3 | 7.8 | 0.00 | 0.02 | 0.00 | 32 | 1020.7 |
| 20260831220003 | 78 | 94 | 4.3 | 7.8 | 0.00 | 0.02 | 0.00 | 32 | 1006.7 |
| 20260831215504 | 77 | 130 | 3.5 | 7.0 | 0.00 | 0.02 | 0.00 | 33 | 1020.7 |
| 20260831214504 | 77 | 91 | 2.6 | 7.8 | 0.00 | 0.02 | 0.00 | 35 | 1020.6 |
| 20260831213505 | 77 | 154 | 3.5 | 6.1 | 0.00 | 0.02 | 0.00 | 33 | 1020.9 |
| 20260831213003 | 77 | 124 | 2.6 | 6.1 | 0.00 | 0.02 | 0.00 | 35 | 1007.0 |
| 20260831212505 | 76 | 163 | 4.3 | 7.8 | 0.00 | 0.02 | 0.00 | 35 | 1021.1 |
| 20260831212007 | 76 | 150 | 2.6 | 7.8 | 0.00 | 0.02 | 0.00 | 35 | 1021.1 |
| 20260831211505 | 76 | 89 | 3.5 | 7.8 | 0.00 | 0.02 | 0.00 | 35 | 1021.1 |
| 20260831211503 | 76 | 89 | 2.6 | 7.8 | 0.00 | 0.02 | 0.00 | 35 | 1007.1 |
| 20260831211006 | 77 | 119 | 6.1 | 7.8 | 0.00 | 0.02 | 0.00 | 34 | 1021.2 |
| 20260831210505 | 77 | 112 | 5.2 | 7.8 | 0.00 | 0.02 | 0.00 | 35 | 1021.1 |
| 20260831210006 | 77 | 149 | 5.2 | 8.7 | 0.00 | 0.02 | 0.00 | 35 | 1021.1 |
| 20260831210003 | 77 | 149 | 4.3 | 8.7 | 0.00 | 0.02 | 0.00 | 35 | 1007.1 |
| 20260831205006 | 77 | 174 | 6.1 | 10.4 | 0.00 | 0.02 | 0.00 | 34 | 1021.3 |
| 20260831204505 | 76 | 171 | 6.1 | 8.7 | 0.00 | 0.02 | 0.00 | 34 | 1021.4 |
| 20260831204503 | 76 | 171 | 5.2 | 8.7 | 0.00 | 0.02 | 0.00 | 34 | 1007.3 |
| 20260831204005 | 76 | 148 | 4.3 | 7.8 | 0.00 | 0.02 | 0.00 | 34 | 1021.4 |
| 20260831203505 | 76 | 159 | 2.6 | 7.0 | 0.00 | 0.02 | 0.00 | 32 | 1021.5 |
| 20260831203007 | 76 | 138 | 2.6 | 8.7 | 0.00 | 0.02 | 0.00 | 34 | 1021.6 |
| 20260831203002 | 76 | 138 | 1.7 | 8.7 | 0.00 | 0.02 | 0.00 | 34 | 1007.5 |
| 20260831202504 | 76 | 169 | 4.3 | 8.7 | 0.00 | 0.02 | 0.00 | 36 | 1021.6 |
| 20260831202006 | 76 | 138 | 4.3 | 8.7 | 0.00 | 0.02 | 0.00 | 35 | 1021.6 |
| 20260831201559 | 76 | 93 | 6.1 | 9.6 | 0.00 | 0.02 | 0.00 | 36 | 1007.7 |
| 20260831201505 | 76 | 107 | 6.1 | 9.6 | 0.00 | 0.02 | 0.00 | 35 | 1021.7 |
| 20260831201007 | 77 | 134 | 6.1 | 9.6 | 0.00 | 0.02 | 0.00 | 35 | 1021.6 |
| 20260831200504 | 77 | 61 | 4.3 | 7.8 | 0.00 | 0.02 | 0.00 | 35 | 1021.7 |
| 20260831200008 | 76 | 164 | 3.5 | 8.7 | 0.00 | 0.02 | 0.00 | 34 | 1007.8 |
| 20260831195505 | 76 | 130 | 6.1 | 8.7 | 0.00 | 0.02 | 0.00 | 37 | 1021.8 |
| 20260831195007 | 77 | 128 | 4.3 | 8.7 | 0.00 | 0.02 | 0.00 | 35 | 1021.8 |
| 20260831194505 | 77 | 107 | 4.3 | 11.3 | 0.00 | 0.02 | 0.00 | 34 | 1021.9 |
| 20260831194503 | 77 | 107 | 3.5 | 11.3 | 0.00 | 0.02 | 0.00 | 34 | 1007.9 |
| 20260831194005 | 77 | 120 | 4.3 | 9.6 | 0.00 | 0.02 | 0.00 | 35 | 1021.9 |
| 20260831193505 | 77 | 96 | 5.2 | 8.7 | 0.00 | 0.02 | 0.00 | 34 | 1021.9 |
| 20260831193006 | 78 | 105 | 5.2 | 7.8 | 0.00 | 0.02 | 0.00 | 33 | 1022.0 |
| 20260831193003 | 78 | 117 | 5.2 | 7.8 | 0.00 | 0.02 | 0.00 | 33 | 1008.0 |
| 20260831192006 | 78 | 137 | 5.2 | 9.6 | 0.00 | 0.02 | 0.00 | 35 | 1022.0 |
| 20260831191506 | 78 | 46 | 4.3 | 9.6 | 0.00 | 0.02 | 0.00 | 35 | 1022.0 |
| 20260831191503 | 78 | 46 | 4.3 | 9.6 | 0.00 | 0.02 | 0.00 | 35 | 1008.0 |
| 20260831191008 | 77 | 57 | 3.5 | 9.6 | 0.00 | 0.02 | 0.00 | 35 | 1022.1 |
| 20260831190006 | 77 | 64 | 2.6 | 6.1 | 0.00 | 0.02 | 0.00 | 34 | 1022.2 |
| 20260831190003 | 77 | 64 | 1.7 | 6.1 | 0.00 | 0.02 | 0.00 | 34 | 1008.2 |
| 20260831185505 | 77 | 327 | 1.7 | 8.7 | 0.00 | 0.02 | 0.00 | 37 | 1022.3 |
| 20260831185006 | 77 | 44 | 5.2 | 8.7 | 0.00 | 0.02 | 0.00 | 35 | 1022.4 |
| 20260831184505 | 77 | 47 | 2.6 | 9.6 | 0.00 | 0.02 | 0.00 | 34 | 1022.4 |
| 20260831184503 | 77 | 47 | 2.6 | 9.6 | 0.00 | 0.02 | 0.00 | 34 | 1008.3 |
| 20260831184006 | 77 | 46 | 4.3 | 9.6 | 0.00 | 0.02 | 0.00 | 36 | 1022.4 |
| 20260831183507 | 76 | 345 | 3.5 | 7.8 | 0.00 | 0.02 | 0.00 | 38 | 1022.4 |
| 20260831183006 | 76 | 61 | 3.5 | 7.8 | 0.00 | 0.02 | 0.00 | 36 | 1022.4 |
| 20260831183004 | 76 | 61 | 2.6 | 7.8 | 0.00 | 0.02 | 0.00 | 36 | 1008.4 |
| 20260831182506 | 75 | 50 | 2.6 | 6.1 | 0.00 | 0.02 | 0.00 | 36 | 1022.6 |
| 20260831182007 | 75 | 56 | 2.6 | 6.1 | 0.00 | 0.02 | 0.00 | 35 | 1022.6 |
| 20260831181504 | 76 | 62 | 3.5 | 5.2 | 0.00 | 0.02 | 0.00 | 36 | 1022.7 |
| 20260831181007 | 76 | 19 | 1.7 | 7.0 | 0.00 | 0.02 | 0.00 | 34 | 1022.7 |
| 20260831180505 | 76 | 19 | 0.9 | 7.0 | 0.00 | 0.02 | 0.00 | 36 | 1022.8 |
| 20260831180007 | 76 | 20 | 4.3 | 7.0 | 0.00 | 0.02 | 0.00 | 34 | 1022.8 |
| 20260831180004 | 76 | 20 | 4.3 | 7.0 | 0.00 | 0.02 | 0.00 | 34 | 1008.7 |
| 20260831175008 | 76 | 42 | 2.6 | 5.2 | 0.00 | 0.02 | 0.00 | 36 | 1022.7 |
| 20260831174505 | 76 | 340 | 0.9 | 5.2 | 0.00 | 0.02 | 0.00 | 35 | 1022.8 |
| 20260831174503 | 76 | 340 | 0.9 | 5.2 | 0.00 | 0.02 | 0.00 | 35 | 1008.7 |
| 20260831174006 | 76 | 340 | 2.6 | 6.1 | 0.00 | 0.02 | 0.00 | 37 | 1022.7 |
| 20260831173504 | 76 | 49 | 4.3 | 7.0 | 0.00 | 0.02 | 0.00 | 36 | 1022.7 |
| 20260831173002 | 76 | 25 | 1.7 | 4.3 | 0.00 | 0.02 | 0.00 | 35 | 1008.7 |
| 20260831172505 | 76 | 9 | 1.7 | 3.5 | 0.00 | 0.02 | 0.00 | 36 | 1022.8 |
| 20260831171503 | 75 | 5 | 0.9 | 3.5 | 0.00 | 0.02 | 0.00 | 39 | 1008.7 |
| 20260831171006 | 75 | 314 | 0.9 | 2.6 | 0.00 | 0.02 | 0.00 | 37 | 1022.8 |
| 20260831170504 | 74 | 181 | 0.0 | 3.5 | 0.00 | 0.02 | 0.00 | 37 | 1023.0 |
| 20260831170007 | 74 | 233 | 2.6 | 3.5 | 0.00 | 0.02 | 0.00 | 38 | 1022.8 |
| 20260831170005 | 74 | 233 | 1.7 | 3.5 | 0.00 | 0.02 | 0.00 | 38 | 1008.8 |
| 20260831165504 | 75 | 242 | 1.7 | 2.6 | 0.00 | 0.02 | 0.00 | 37 | 1022.9 |
| 20260831165007 | 75 | 54 | 0.9 | 3.5 | 0.00 | 0.02 | 0.00 | 38 | 1023.0 |
| 20260831164509 | 74 | 79 | 0.9 | 3.5 | 0.00 | 0.02 | 0.00 | 38 | 1008.9 |
| 20260831164505 | 74 | 79 | 0.9 | 3.5 | 0.00 | 0.02 | 0.00 | 38 | 1022.9 |
| 20260831163006 | 73 | 316 | 1.7 | 3.5 | 0.00 | 0.02 | 0.00 | 40 | 1022.8 |
| 20260831163003 | 73 | 316 | 1.7 | 3.5 | 0.00 | 0.02 | 0.00 | 40 | 1008.8 |
| 20260831162006 | 73 | 294 | 1.7 | 3.5 | 0.00 | 0.02 | 0.00 | 39 | 1022.7 |
| 20260831161505 | 73 | 294 | 1.7 | 3.5 | 0.00 | 0.02 | 0.00 | 39 | 1022.7 |
| 20260831161503 | 73 | 294 | 0.9 | 3.5 | 0.00 | 0.02 | 0.00 | 39 | 1008.6 |
| 20260831161007 | 73 | 294 | 0.9 | 4.3 | 0.00 | 0.02 | 0.00 | 38 | 1022.6 |
| 20260831160505 | 73 | 294 | 1.7 | 4.3 | 0.00 | 0.02 | 0.00 | 39 | 1022.6 |
| 20260831160007 | 73 | 63 | 1.7 | 3.5 | 0.00 | 0.02 | 0.00 | 38 | 1022.6 |
| 20260831160003 | 73 | 63 | 0.9 | 3.5 | 0.00 | 0.02 | 0.00 | 38 | 1008.5 |
| 20260831155505 | 72 | 215 | 1.7 | 3.5 | 0.00 | 0.02 | 0.00 | 38 | 1022.5 |
| 20260831155008 | 72 | 215 | 1.7 | 2.6 | 0.00 | 0.02 | 0.00 | 43 | 1022.5 |
| 20260831154504 | 71 | 215 | 0.9 | 3.5 | 0.00 | 0.02 | 0.00 | 44 | 1008.3 |
| 20260831154002 | 71 | 215 | 0.9 | 3.5 | 0.00 | 0.02 | 0.00 | 46 | 1022.6 |
| 20260831153505 | 70 | 215 | 0.0 | 2.6 | 0.00 | 0.02 | 0.00 | 50 | 1022.4 |
| 20260831153009 | 70 | 215 | 0.9 | 4.3 | 0.00 | 0.02 | 0.00 | 52 | 1008.2 |
| 20260831153007 | 70 | 215 | 0.9 | 4.3 | 0.00 | 0.02 | 0.00 | 52 | 1022.4 |
| 20260831152505 | 69 | 215 | 1.7 | 4.3 | 0.00 | 0.02 | 0.00 | 52 | 1022.4 |
| 20260831152006 | 69 | 215 | 1.7 | 5.2 | 0.00 | 0.02 | 0.00 | 53 | 1022.4 |
| 20260831151506 | 69 | 215 | 2.6 | 5.2 | 0.00 | 0.02 | 0.00 | 51 | 1022.4 |
| 20260831151503 | 69 | 215 | 1.7 | 5.2 | 0.00 | 0.02 | 0.00 | 51 | 1008.3 |
| 20260831151005 | 69 | 258 | 0.9 | 4.3 | 0.00 | 0.02 | 0.00 | 53 | 1022.4 |
| 20260831150506 | 68 | 205 | 2.6 | 5.2 | 0.00 | 0.02 | 0.00 | 51 | 1022.3 |
| 20260831150007 | 68 | 205 | 2.6 | 5.2 | 0.00 | 0.02 | 0.00 | 51 | 1022.4 |
| 20260831150004 | 68 | 205 | 1.7 | 5.2 | 0.00 | 0.02 | 0.00 | 51 | 1008.3 |
| 20260831145504 | 68 | 192 | 2.6 | 5.2 | 0.00 | 0.02 | 0.00 | 52 | 1022.4 |
| 20260831144558 | 68 | 235 | 0.9 | 7.0 | 0.00 | 0.02 | 0.00 | 54 | 1008.2 |
| 20260831144505 | 68 | 235 | 1.7 | 7.0 | 0.00 | 0.02 | 0.00 | 54 | 1022.4 |
| 20260831144502 | 68 | 235 | 1.7 | 7.0 | 0.00 | 0.02 | 0.00 | 54 | 1008.2 |
| 20260831144005 | 67 | 221 | 2.6 | 7.0 | 0.00 | 0.02 | 0.00 | 53 | 1022.4 |
| 20260831143505 | 67 | 223 | 4.3 | 7.0 | 0.00 | 0.02 | 0.00 | 52 | 1022.3 |
| 20260831143006 | 66 | 190 | 3.5 | 4.3 | 0.00 | 0.02 | 0.00 | 54 | 1022.3 |
| 20260831143003 | 66 | 190 | 2.6 | 4.3 | 0.00 | 0.02 | 0.00 | 54 | 1008.2 |
| 20260831142505 | 66 | 175 | 2.6 | 4.3 | 0.00 | 0.02 | 0.00 | 56 | 1022.2 |
| 20260831142006 | 65 | 175 | 3.5 | 4.3 | 0.00 | 0.02 | 0.00 | 54 | 1022.2 |
| 20260831141505 | 65 | 205 | 1.7 | 4.3 | 0.00 | 0.02 | 0.00 | 55 | 1008.1 |
| 20260831141005 | 64 | 214 | 1.7 | 5.2 | 0.00 | 0.02 | 0.00 | 55 | 1022.1 |
| 20260831140008 | 64 | 236 | 2.6 | 5.2 | 0.00 | 0.02 | 0.00 | 56 | 1022.1 |
| 20260831140003 | 64 | 236 | 2.6 | 5.2 | 0.00 | 0.02 | 0.00 | 56 | 1008.0 |
| 20260831135504 | 64 | 227 | 3.5 | 6.1 | 0.00 | 0.02 | 0.00 | 58 | 1022.1 |
| 20260831135005 | 64 | 225 | 3.5 | 6.1 | 0.00 | 0.02 | 0.00 | 57 | 1022.1 |
| 20260831134503 | 63 | 217 | 3.5 | 5.2 | 0.00 | 0.02 | 0.00 | 57 | 1007.9 |
| 20260831133506 | 62 | 236 | 3.5 | 7.0 | 0.00 | 0.02 | 0.00 | 58 | 1021.8 |
| 20260831133006 | 62 | 198 | 2.6 | 4.3 | 0.00 | 0.02 | 0.00 | 60 | 1007.8 |
| 20260831132504 | 61 | 215 | 1.7 | 5.2 | 0.00 | 0.02 | 0.00 | 61 | 1021.7 |
| 20260831132006 | 61 | 177 | 2.6 | 5.2 | 0.00 | 0.02 | 0.00 | 61 | 1021.6 |
| 20260831131505 | 60 | 221 | 2.6 | 5.2 | 0.00 | 0.02 | 0.00 | 61 | 1021.5 |
| 20260831131006 | 59 | 203 | 2.6 | 4.3 | 0.00 | 0.02 | 0.00 | 62 | 1021.4 |
| 20260831130505 | 59 | 226 | 1.7 | 3.5 | 0.00 | 0.02 | 0.00 | 63 | 1021.3 |
| 20260831130007 | 59 | 226 | 1.7 | 3.5 | 0.00 | 0.02 | 0.00 | 63 | 1021.2 |
| 20260831130003 | 59 | 226 | 0.9 | 3.5 | 0.00 | 0.02 | 0.00 | 63 | 1007.2 |
| 20260831125505 | 59 | 226 | 1.7 | 3.5 | 0.00 | 0.02 | 0.00 | 63 | 1021.0 |
| 20260831125006 | 59 | 226 | 0.9 | 2.6 | 0.00 | 0.02 | 0.00 | 62 | 1021.0 |
| 20260831124504 | 59 | 226 | 0.0 | 3.5 | 0.00 | 0.02 | 0.00 | 62 | 1006.9 |
| 20260831124005 | 59 | 226 | 1.7 | 5.2 | 0.00 | 0.02 | 0.00 | 61 | 1020.9 |
| 20260831123504 | 59 | 226 | 1.7 | 5.2 | 0.00 | 0.02 | 0.00 | 62 | 1020.8 |
| 20260831123005 | 59 | 232 | 2.6 | 6.1 | 0.00 | 0.02 | 0.00 | 62 | 1020.7 |
| 20260831123003 | 59 | 232 | 1.7 | 6.1 | 0.00 | 0.02 | 0.00 | 62 | 1006.7 |
| 20260831122504 | 59 | 229 | 2.6 | 6.1 | 0.00 | 0.02 | 0.00 | 62 | 1020.7 |
| 20260831122006 | 59 | 233 | 1.7 | 4.3 | 0.00 | 0.02 | 0.00 | 63 | 1020.7 |
| 20260831121505 | 58 | 233 | 1.7 | 5.2 | 0.00 | 0.02 | 0.00 | 64 | 1020.6 |
| 20260831120506 | 58 | 229 | 0.9 | 2.6 | 0.00 | 0.02 | 0.00 | 65 | 1020.7 |
| 20260831120007 | 58 | 229 | 1.7 | 2.6 | 0.00 | 0.02 | 0.00 | 65 | 1020.9 |
| 20260831120004 | 58 | 229 | 0.9 | 2.6 | 0.00 | 0.02 | 0.00 | 65 | 1006.8 |
| 20260831115006 | 57 | 229 | 1.7 | 3.5 | 0.00 | 0.02 | 0.00 | 67 | 1020.7 |
| 20260831114505 | 57 | 229 | 1.7 | 2.6 | 0.00 | 0.02 | 0.00 | 68 | 1006.6 |
| 20260831114004 | 57 | 229 | 0.9 | 1.7 | 0.00 | 0.02 | 0.00 | 68 | 1020.6 |
| 20260831113007 | 57 | 229 | 0.9 | 2.6 | 0.00 | 0.02 | 0.00 | 67 | 1020.6 |
| 20260831112504 | 58 | 229 | 0.9 | 2.6 | 0.00 | 0.02 | 0.00 | 67 | 1020.6 |
| 20260831112007 | 58 | 229 | 0.0 | 2.6 | 0.00 | 0.02 | 0.00 | 67 | 1020.5 |
| 20260831111505 | 58 | 229 | 0.9 | 4.3 | 0.00 | 0.02 | 0.00 | 66 | 1020.5 |
| 20260831111503 | 58 | 229 | 0.9 | 4.3 | 0.00 | 0.02 | 0.00 | 66 | 1006.3 |
| 20260831111005 | 59 | 229 | 0.9 | 4.3 | 0.00 | 0.02 | 0.00 | 65 | 1020.5 |
| 20260831110505 | 59 | 229 | 1.7 | 4.3 | 0.00 | 0.02 | 0.00 | 65 | 1020.5 |
| 20260831110006 | 59 | 217 | 1.7 | 5.2 | 0.00 | 0.02 | 0.00 | 65 | 1020.4 |
| 20260831105505 | 59 | 232 | 2.6 | 5.2 | 0.00 | 0.02 | 0.00 | 65 | 1020.4 |
| 20260831105004 | 59 | 202 | 2.6 | 5.2 | 0.00 | 0.02 | 0.00 | 65 | 1020.4 |
| 20260831104505 | 59 | 220 | 2.6 | 6.1 | 0.00 | 0.02 | 0.00 | 65 | 1020.3 |
| 20260831104503 | 59 | 220 | 2.6 | 6.1 | 0.00 | 0.02 | 0.00 | 65 | 1006.1 |
| 20260831104005 | 59 | 246 | 0.9 | 3.5 | 0.00 | 0.02 | 0.00 | 65 | 1020.3 |
| 20260831103505 | 60 | 246 | 1.7 | 5.2 | 0.00 | 0.02 | 0.00 | 63 | 1020.3 |
| 20260831103005 | 60 | 236 | 3.5 | 7.0 | 0.00 | 0.02 | 0.00 | 62 | 1020.4 |
| 20260831103003 | 60 | 236 | 3.5 | 7.0 | 0.00 | 0.02 | 0.00 | 62 | 1006.2 |
| 20260831102504 | 60 | 234 | 2.6 | 7.0 | 0.00 | 0.02 | 0.00 | 63 | 1020.4 |
| 20260831102006 | 60 | 243 | 0.9 | 6.1 | 0.00 | 0.02 | 0.00 | 63 | 1020.3 |
| 20260831101503 | 60 | 202 | 0.9 | 6.1 | 0.00 | 0.02 | 0.00 | 63 | 1006.0 |
| 20260831101005 | 60 | 257 | 1.7 | 6.1 | 0.00 | 0.02 | 0.00 | 64 | 1020.3 |
| 20260831100504 | 59 | 246 | 2.6 | 6.1 | 0.00 | 0.02 | 0.00 | 65 | 1020.3 |
| 20260831100006 | 59 | 240 | 1.7 | 3.5 | 0.00 | 0.02 | 0.00 | 66 | 1020.3 |
| 20260831100004 | 59 | 240 | 1.7 | 3.5 | 0.00 | 0.02 | 0.00 | 66 | 1006.0 |
| 20260831095504 | 59 | 240 | 1.7 | 3.5 | 0.00 | 0.02 | 0.00 | 66 | 1020.3 |
| 20260831095005 | 60 | 240 | 0.9 | 4.3 | 0.00 | 0.02 | 0.00 | 65 | 1020.3 |
| 20260831094505 | 60 | 259 | 1.7 | 6.1 | 0.00 | 0.02 | 0.00 | 66 | 1020.3 |
| 20260831094004 | 59 | 183 | 3.5 | 6.1 | 0.00 | 0.02 | 0.00 | 66 | 1020.3 |
| 20260831093505 | 59 | 220 | 1.7 | 4.3 | 0.00 | 0.02 | 0.00 | 67 | 1020.3 |
| 20260831093005 | 59 | 209 | 1.7 | 4.3 | 0.00 | 0.02 | 0.00 | 68 | 1020.3 |
| 20260831093003 | 59 | 209 | 0.9 | 4.3 | 0.00 | 0.02 | 0.00 | 68 | 1006.1 |
| 20260831092505 | 60 | 209 | 1.7 | 6.1 | 0.00 | 0.02 | 0.00 | 68 | 1020.3 |
| 20260831091504 | 59 | 211 | 1.7 | 5.2 | 0.00 | 0.02 | 0.00 | 68 | 1020.3 |
| 20260831091006 | 59 | 188 | 2.6 | 5.2 | 0.00 | 0.02 | 0.00 | 69 | 1020.3 |
| 20260831090506 | 59 | 202 | 2.6 | 5.2 | 0.00 | 0.02 | 0.00 | 70 | 1020.3 |
| 20260831090005 | 59 | 229 | 2.6 | 5.2 | 0.00 | 0.02 | 0.00 | 70 | 1020.3 |
| 20260831090003 | 59 | 229 | 2.6 | 5.2 | 0.00 | 0.02 | 0.00 | 70 | 1006.0 |
| 20260831085504 | 59 | 242 | 2.6 | 5.2 | 0.00 | 0.02 | 0.00 | 71 | 1020.3 |
| 20260831085006 | 58 | 200 | 1.7 | 3.5 | 0.00 | 0.02 | 0.00 | 71 | 1020.4 |
| 20260831084503 | 58 | 200 | 0.9 | 3.5 | 0.00 | 0.02 | 0.00 | 73 | 1006.2 |
| 20260831084005 | 57 | 200 | 1.7 | 3.5 | 0.00 | 0.02 | 0.00 | 74 | 1020.4 |
| 20260831083505 | 57 | 200 | 0.9 | 3.5 | 0.00 | 0.02 | 0.00 | 74 | 1020.4 |
| 20260831083007 | 57 | 200 | 0.0 | 3.5 | 0.00 | 0.02 | 0.00 | 74 | 1006.2 |
| 20260831082005 | 58 | 200 | 2.6 | 4.3 | 0.00 | 0.02 | 0.00 | 72 | 1020.5 |
| 20260831081505 | 58 | 200 | 2.6 | 3.5 | 0.00 | 0.02 | 0.00 | 73 | 1020.5 |
| 20260831081503 | 58 | 200 | 2.6 | 3.5 | 0.00 | 0.02 | 0.00 | 73 | 1006.3 |
| 20260831080504 | 57 | 200 | 1.7 | 2.6 | 0.00 | 0.02 | 0.00 | 75 | 1020.7 |
| 20260831080006 | 57 | 200 | 1.7 | 3.5 | 0.00 | 0.02 | 0.00 | 75 | 1020.7 |
| 20260831080003 | 57 | 200 | 0.9 | 3.5 | 0.00 | 0.02 | 0.00 | 75 | 1006.5 |
| 20260831075504 | 57 | 200 | 1.7 | 3.5 | 0.00 | 0.02 | 0.00 | 77 | 1020.7 |
| 20260831075006 | 56 | 200 | 1.7 | 3.5 | 0.00 | 0.02 | 0.00 | 77 | 1020.9 |
| 20260831074504 | 56 | 200 | 1.7 | 3.5 | 0.00 | 0.02 | 0.00 | 78 | 1021.0 |
| 20260831074006 | 57 | 200 | 1.7 | 3.5 | 0.00 | 0.02 | 0.00 | 79 | 1021.0 |
| 20260831073504 | 57 | 200 | 0.9 | 2.6 | 0.00 | 0.02 | 0.00 | 78 | 1020.9 |
| 20260831073009 | 57 | 200 | 0.9 | 3.5 | 0.00 | 0.02 | 0.00 | 79 | 1006.6 |
| 20260831073005 | 57 | 200 | 0.9 | 3.5 | 0.00 | 0.02 | 0.00 | 79 | 1020.8 |
| 20260831072504 | 57 | 200 | 1.7 | 3.5 | 0.00 | 0.02 | 0.00 | 79 | 1020.9 |
| 20260831072006 | 57 | 200 | 1.7 | 2.6 | 0.00 | 0.02 | 0.00 | 78 | 1020.7 |
| 20260831071504 | 57 | 200 | 1.7 | 4.3 | 0.00 | 0.02 | 0.00 | 78 | 1020.8 |
| 20260831071502 | 57 | 200 | 0.9 | 4.3 | 0.00 | 0.02 | 0.00 | 78 | 1006.5 |
| 20260831070505 | 57 | 237 | 0.9 | 3.5 | 0.00 | 0.02 | 0.00 | 79 | 1021.0 |
| 20260831070004 | 57 | 237 | 0.9 | 4.3 | 0.00 | 0.02 | 0.00 | 78 | 1006.8 |
| 20260831065504 | 58 | 237 | 2.6 | 4.3 | 0.00 | 0.02 | 0.00 | 78 | 1021.2 |
| 20260831065005 | 58 | 192 | 0.0 | 2.6 | 0.00 | 0.02 | 0.00 | 77 | 1021.2 |
| 20260831064506 | 58 | 192 | 0.0 | 2.6 | 0.00 | 0.02 | 0.00 | 77 | 1021.2 |
| 20260831064503 | 58 | 192 | 0.0 | 2.6 | 0.00 | 0.02 | 0.00 | 77 | 1006.9 |
| 20260831064005 | 58 | 192 | 0.9 | 1.7 | 0.00 | 0.02 | 0.00 | 76 | 1021.2 |
| 20260831063504 | 59 | 192 | 0.0 | 2.6 | 0.00 | 0.02 | 0.00 | 76 | 1021.4 |
| 20260831063008 | 59 | 192 | 0.9 | 4.3 | 0.00 | 0.02 | 0.00 | 74 | 1006.9 |
| 20260831063005 | 59 | 192 | 0.9 | 4.3 | 0.00 | 0.02 | 0.00 | 74 | 1021.2 |
| 20260831062505 | 60 | 192 | 1.7 | 6.1 | 0.00 | 0.02 | 0.00 | 73 | 1021.3 |
| 20260831062006 | 60 | 192 | 3.5 | 7.8 | 0.00 | 0.02 | 0.00 | 72 | 1021.4 |
| 20260831061505 | 59 | 151 | 3.5 | 9.6 | 0.00 | 0.02 | 0.00 | 73 | 1021.5 |
| 20260831061503 | 59 | 151 | 3.5 | 9.6 | 0.00 | 0.02 | 0.00 | 73 | 1007.0 |
| 20260831061005 | 59 | 173 | 7.0 | 9.6 | 0.00 | 0.02 | 0.00 | 76 | 1021.7 |
| 20260831060506 | 58 | 148 | 5.2 | 7.0 | 0.00 | 0.02 | 0.00 | 78 | 1021.9 |
| 20260831060007 | 58 | 191 | 3.5 | 5.2 | 0.01 | 0.02 | 0.00 | 79 | 1022.1 |
| 20260831060004 | 58 | 191 | 2.6 | 5.2 | 0.01 | 0.02 | 0.00 | 79 | 1007.7 |
| 20260831055006 | 58 | 189 | 2.6 | 7.0 | 0.02 | 0.02 | 0.02 | 80 | 1022.1 |
| 20260831054510 | 58 | 201 | 2.6 | 7.0 | 0.02 | 0.02 | 0.02 | 81 | 1007.6 |
| 20260831054506 | 58 | 201 | 2.6 | 7.0 | 0.02 | 0.02 | 0.02 | 81 | 1022.0 |
| 20260831054007 | 58 | 126 | 2.6 | 5.2 | 0.02 | 0.02 | 0.02 | 81 | 1021.8 |
| 20260831053505 | 58 | 126 | 1.7 | 3.5 | 0.02 | 0.02 | 0.02 | 82 | 1021.6 |
| 20260831053006 | 58 | 126 | 2.6 | 3.5 | 0.02 | 0.02 | 0.02 | 82 | 1021.6 |
| 20260831053004 | 58 | 126 | 1.7 | 3.5 | 0.02 | 0.02 | 0.02 | 82 | 1007.1 |
| 20260831051508 | 59 | 126 | 3.5 | 8.7 | 0.02 | 0.02 | 0.02 | 80 | 1007.3 |
| 20260831051506 | 59 | 126 | 4.3 | 8.7 | 0.02 | 0.02 | 0.02 | 80 | 1021.7 |
| 20260831051007 | 60 | 127 | 7.8 | 8.7 | 0.02 | 0.02 | 0.02 | 78 | 1021.9 |
| 20260831050505 | 61 | 296 | 1.7 | 4.3 | 0.02 | 0.02 | 0.02 | 74 | 1022.7 |
| 20260831050006 | 62 | 296 | 2.6 | 5.2 | 0.01 | 0.01 | 0.01 | 72 | 1022.6 |
| 20260831050004 | 62 | 296 | 2.6 | 5.2 | 0.01 | 0.01 | 0.01 | 72 | 1008.2 |
| 20260831045504 | 63 | 199 | 0.9 | 9.6 | 0.00 | 0.00 | 0.00 | 68 | 1023.3 |
| 20260831045005 | 64 | 249 | 2.6 | 12.2 | 0.00 | 0.00 | 0.00 | 64 | 1023.4 |
| 20260831044506 | 64 | 203 | 4.3 | 11.3 | 0.00 | 0.00 | 0.00 | 61 | 1023.4 |
| 20260831044504 | 64 | 203 | 4.3 | 11.3 | 0.00 | 0.00 | 0.00 | 61 | 1009.1 |
| 20260831044006 | 64 | 257 | 6.1 | 12.2 | 0.00 | 0.00 | 0.00 | 60 | 1023.2 |
| 20260831043506 | 64 | 240 | 4.3 | 12.2 | 0.00 | 0.00 | 0.00 | 63 | 1022.9 |
| 20260831043003 | 63 | 192 | 5.2 | 9.6 | 0.00 | 0.00 | 0.00 | 63 | 1008.1 |
| 20260831042505 | 62 | 226 | 5.2 | 8.7 | 0.00 | 0.00 | 0.00 | 67 | 1022.2 |
| 20260831041506 | 61 | 186 | 2.6 | 7.0 | 0.00 | 0.00 | 0.00 | 68 | 1021.7 |
| 20260831041504 | 61 | 186 | 2.6 | 7.0 | 0.00 | 0.00 | 0.00 | 68 | 1007.2 |
| 20260831041006 | 61 | 191 | 3.5 | 7.0 | 0.00 | 0.00 | 0.00 | 71 | 1021.6 |
| 20260831040505 | 60 | 184 | 2.6 | 4.3 | 0.00 | 0.00 | 0.00 | 73 | 1021.5 |
| 20260831040008 | 60 | 184 | 0.9 | 3.5 | 0.00 | 0.00 | 0.00 | 74 | 1021.5 |
| 20260831040004 | 60 | 184 | 0.9 | 3.5 | 0.00 | 0.00 | 0.00 | 74 | 1007.0 |
| 20260831035505 | 60 | 184 | 2.6 | 3.5 | 0.00 | 0.00 | 0.00 | 74 | 1021.5 |
| 20260831035006 | 60 | 184 | 1.7 | 3.5 | 0.00 | 0.00 | 0.00 | 74 | 1021.6 |
| 20260831034505 | 61 | 223 | 0.9 | 3.5 | 0.00 | 0.00 | 0.00 | 74 | 1021.5 |
| 20260831034007 | 61 | 223 | 1.7 | 3.5 | 0.00 | 0.00 | 0.00 | 74 | 1021.5 |
| 20260831033505 | 61 | 200 | 1.7 | 4.3 | 0.00 | 0.00 | 0.00 | 73 | 1021.4 |
| 20260831033006 | 61 | 200 | 1.7 | 4.3 | 0.00 | 0.00 | 0.00 | 74 | 1021.4 |
| 20260831033004 | 61 | 200 | 1.7 | 4.3 | 0.00 | 0.00 | 0.00 | 74 | 1006.9 |
| 20260831032505 | 61 | 200 | 1.7 | 3.5 | 0.00 | 0.00 | 0.00 | 74 | 1021.3 |
| 20260831032007 | 61 | 200 | 2.6 | 3.5 | 0.00 | 0.00 | 0.00 | 74 | 1021.2 |
| 20260831031505 | 61 | 200 | 1.7 | 3.5 | 0.00 | 0.00 | 0.00 | 75 | 1021.3 |
| 20260831031503 | 61 | 200 | 1.7 | 3.5 | 0.00 | 0.00 | 0.00 | 75 | 1006.8 |
| 20260831030505 | 61 | 204 | 1.7 | 4.3 | 0.00 | 0.00 | 0.00 | 76 | 1021.3 |
| 20260831030008 | 61 | 204 | 2.6 | 4.3 | 0.00 | 0.00 | 0.00 | 76 | 1021.3 |
| 20260831030005 | 61 | 204 | 1.7 | 4.3 | 0.00 | 0.00 | 0.00 | 76 | 1006.8 |
| 20260831025505 | 61 | 204 | 0.9 | 4.3 | 0.00 | 0.00 | 0.00 | 76 | 1021.1 |
| 20260831025005 | 61 | 204 | 1.7 | 4.3 | 0.00 | 0.00 | 0.00 | 76 | 1021.0 |
| 20260831024505 | 61 | 204 | 1.7 | 2.6 | 0.00 | 0.00 | 0.00 | 75 | 1020.8 |
| 20260831024005 | 61 | 204 | 0.9 | 3.5 | 0.00 | 0.00 | 0.00 | 75 | 1020.7 |
| 20260831023504 | 61 | 204 | 0.9 | 3.5 | 0.00 | 0.00 | 0.00 | 75 | 1020.7 |
| 20260831023004 | 61 | 204 | 0.9 | 2.6 | 0.00 | 0.00 | 0.00 | 76 | 1006.2 |
| 20260831022505 | 61 | 204 | 1.7 | 2.6 | 0.00 | 0.00 | 0.00 | 77 | 1020.6 |
| 20260831022006 | 61 | 204 | 0.9 | 2.6 | 0.00 | 0.00 | 0.00 | 77 | 1020.3 |
| 20260831021505 | 61 | 204 | 0.9 | 2.6 | 0.00 | 0.00 | 0.00 | 75 | 1020.3 |
| 20260831021503 | 61 | 204 | 0.9 | 2.6 | 0.00 | 0.00 | 0.00 | 75 | 1005.7 |
| 20260831021006 | 61 | 204 | 0.0 | 1.7 | 0.00 | 0.00 | 0.00 | 74 | 1020.1 |
| 20260831020505 | 62 | 204 | 0.9 | 1.7 | 0.00 | 0.00 | 0.00 | 73 | 1020.1 |
| 20260831020007 | 62 | 204 | 0.9 | 1.7 | 0.00 | 0.00 | 0.00 | 74 | 1020.1 |
| 20260831020004 | 62 | 204 | 0.0 | 1.7 | 0.00 | 0.00 | 0.00 | 74 | 1005.5 |
| 20260831015505 | 62 | 204 | 0.9 | 1.7 | 0.00 | 0.00 | 0.00 | 75 | 1020.0 |
| 20260831015005 | 62 | 204 | 0.9 | 1.7 | 0.00 | 0.00 | 0.00 | 74 | 1019.9 |
| 20260831014505 | 62 | 204 | 0.9 | 2.6 | 0.00 | 0.00 | 0.00 | 73 | 1019.9 |
| 20260831014006 | 63 | 204 | 0.9 | 2.6 | 0.00 | 0.00 | 0.00 | 73 | 1019.8 |
| 20260831013504 | 63 | 204 | 1.7 | 2.6 | 0.00 | 0.00 | 0.00 | 72 | 1019.9 |
| 20260831013004 | 64 | 204 | 0.9 | 2.6 | 0.00 | 0.00 | 0.00 | 71 | 1005.2 |
| 20260831012505 | 64 | 204 | 0.9 | 1.7 | 0.00 | 0.00 | 0.00 | 71 | 1019.9 |
| 20260831012006 | 64 | 204 | 0.9 | 2.6 | 0.00 | 0.00 | 0.00 | 71 | 1019.9 |
| 20260831011504 | 64 | 204 | 0.9 | 4.3 | 0.00 | 0.00 | 0.00 | 71 | 1020.0 |
| 20260831011006 | 64 | 204 | 2.6 | 4.3 | 0.00 | 0.00 | 0.00 | 71 | 1020.0 |
| 20260831010506 | 64 | 204 | 1.7 | 5.2 | 0.00 | 0.00 | 0.00 | 70 | 1020.1 |
| 20260831010007 | 64 | 204 | 1.7 | 5.2 | 0.00 | 0.00 | 0.00 | 70 | 1020.1 |
| 20260831010004 | 64 | 204 | 1.7 | 5.2 | 0.00 | 0.00 | 0.00 | 70 | 1005.4 |
| 20260831005504 | 64 | 234 | 1.7 | 4.3 | 0.00 | 0.00 | 0.00 | 70 | 1020.2 |
| 20260831004505 | 64 | 200 | 1.7 | 2.6 | 0.00 | 0.00 | 0.00 | 71 | 1020.1 |
| 20260831004503 | 64 | 200 | 1.7 | 2.6 | 0.00 | 0.00 | 0.00 | 71 | 1005.4 |
| 20260831004006 | 64 | 200 | 1.7 | 4.3 | 0.00 | 0.00 | 0.00 | 70 | 1020.3 |
| 20260831003003 | 64 | 183 | 1.7 | 3.5 | 0.00 | 0.00 | 0.00 | 70 | 1005.6 |
| 20260831002505 | 63 | 325 | 1.7 | 3.5 | 0.00 | 0.00 | 0.00 | 70 | 1020.4 |
| 20260831002006 | 63 | 325 | 1.7 | 1.7 | 0.00 | 0.00 | 0.00 | 71 | 1020.5 |
| 20260831001505 | 63 | 325 | 0.0 | 1.7 | 0.00 | 0.00 | 0.00 | 71 | 1020.5 |
| 20260831001006 | 63 | 325 | 0.9 | 8.7 | 0.00 | 0.00 | 0.00 | 71 | 1020.4 |
| 20260831000507 | 63 | 325 | 3.5 | 9.6 | 0.00 | 0.00 | 0.00 | 71 | 1020.5 |
| 20260831000007 | 64 | 299 | 5.2 | 9.6 | 0.00 | 0.00 | 0.00 | 70 | 1021.0 |
| 20260831000005 | 64 | 299 | 4.3 | 9.6 | 0.00 | 0.00 | 0.00 | 70 | 1006.0 |
| 20260830235505 | 63 | 117 | 2.6 | 5.2 | 0.00 | 0.00 | 0.00 | 70 | 1021.1 |
| 20260830234506 | 62 | 90 | 2.6 | 3.5 | 0.00 | 0.00 | 0.00 | 74 | 1020.8 |
| 20260830234504 | 62 | 90 | 1.7 | 3.5 | 0.00 | 0.00 | 0.00 | 74 | 1005.8 |
| 20260830234005 | 62 | 320 | 0.0 | 2.6 | 0.00 | 0.00 | 0.00 | 73 | 1020.9 |
| 20260830233505 | 62 | 320 | 1.7 | 3.5 | 0.00 | 0.00 | 0.00 | 74 | 1021.0 |
| 20260830233006 | 61 | 320 | 1.7 | 5.2 | 0.00 | 0.00 | 0.00 | 74 | 1021.1 |
| 20260830233003 | 61 | 320 | 0.9 | 5.2 | 0.00 | 0.00 | 0.00 | 74 | 1006.1 |
| 20260830232504 | 62 | 346 | 2.6 | 5.2 | 0.00 | 0.00 | 0.00 | 73 | 1021.2 |
| 20260830232002 | 62 | 305 | 1.7 | 4.3 | 0.00 | 0.00 | 0.00 | 73 | 1021.3 |
| 20260830231505 | 62 | 305 | 1.7 | 7.0 | 0.00 | 0.00 | 0.00 | 72 | 1006.2 |